Time,TemperatureF,DewpointF,PressureIn,WindDirection,WindDirectionDegrees,WindSpeedMPH,WindSpeedGustMPH,Humidity,HourlyPrecipIn,Conditions,Clouds,dailyrainin,SolarRadiationWatts/m^2,SoftwareType,DateUTC
2013-06-12 00:00:00,63.0,33.5,29.63,SW,225,2.0,-999.0,18,-99.99,,,0.00,0.0,cwc,2013-06-12 06:00:00,
2013-06-12 00:05:00,63.1,33.6,29.63,SW,225,3.0,-999.0,18,-99.99,,,0.00,0.0,cwc,2013-06-12 06:05:00,
2013-06-12 00:10:00,62.8,33.3,29.63,SW,225,2.0,-999.0,18,-99.99,,,0.00,0.0,cwc,2013-06-12 06:10:00,
2013-06-12 00:15:00,62.4,32.9,29.63,SW,225,0.0,-999.0,18,-99.99,,,0.00,0.0,cwc,2013-06-12 06:15:00,
2013-06-12 00:20:00,61.6,32.8,29.63,SW,225,3.0,-999.0,20,-99.99,,,0.00,0.0,cwc,2013-06-12 06:20:00,
2013-06-12 00:25:00,60.8,31.6,29.64,SW,225,2.0,-999.0,19,-99.99,,,0.00,0.0,cwc,2013-06-12 06:25:00,
2013-06-12 00:30:00,60.7,31.5,29.64,SW,225,2.0,-999.0,19,-99.99,,,0.00,0.0,cwc,2013-06-12 06:30:00,
2013-06-12 00:35:00,60.5,31.3,29.64,SW,225,0.0,-999.0,19,-99.99,,,0.00,0.0,cwc,2013-06-12 06:35:00,
2013-06-12 00:40:00,60.2,31.0,29.64,SW,225,2.0,-999.0,19,-99.99,,,0.00,0.0,cwc,2013-06-12 06:40:00,
2013-06-12 00:45:00,59.5,30.7,29.64,SW,225,1.0,-999.0,20,-99.99,,,0.00,0.0,cwc,2013-06-12 06:45:00,
2013-06-12 00:55:00,59.0,30.2,29.64,SW,225,1.0,-999.0,20,-99.99,,,0.00,0.0,cwc,2013-06-12 06:55:00,
2013-06-12 01:00:00,59.3,30.1,29.65,SW,225,2.0,-999.0,19,-99.99,,,0.00,0.0,cwc,2013-06-12 07:00:00,
2013-06-12 01:10:00,60.4,31.2,29.65,SW,225,1.0,-999.0,19,-99.99,,,0.00,0.0,cwc,2013-06-12 07:10:00,
2013-06-12 01:15:00,59.9,31.1,29.65,SW,225,4.0,-999.0,20,-99.99,,,0.00,0.0,cwc,2013-06-12 07:15:00,
2013-06-12 01:20:00,59.0,30.2,29.66,SW,225,4.0,-999.0,20,-99.99,,,0.00,0.0,cwc,2013-06-12 07:20:00,
2013-06-12 01:25:00,58.8,30.0,29.66,SW,225,2.0,-999.0,20,-99.99,,,0.00,0.0,cwc,2013-06-12 07:25:00,
2013-06-12 01:30:00,58.7,29.9,29.66,SW,225,1.0,-999.0,20,-99.99,,,0.00,0.0,cwc,2013-06-12 07:30:00,
2013-06-12 01:35:00,58.6,29.8,29.66,SW,225,2.0,-999.0,20,-99.99,,,0.00,0.0,cwc,2013-06-12 07:35:00,
2013-06-12 01:40:00,58.6,29.8,29.67,SW,225,3.0,-999.0,20,-99.99,,,0.00,0.0,cwc,2013-06-12 07:40:00,
2013-06-12 01:45:00,59.0,30.2,29.66,SW,225,2.0,-999.0,20,-99.99,,,0.00,0.0,cwc,2013-06-12 07:45:00,
2013-06-12 01:50:00,59.0,30.2,29.67,SW,225,5.0,-999.0,20,-99.99,,,0.00,0.0,cwc,2013-06-12 07:50:00,
2013-06-12 01:55:00,59.0,30.2,29.67,SW,225,3.0,-999.0,20,-99.99,,,0.00,0.0,cwc,2013-06-12 07:55:00,
2013-06-12 02:00:00,59.3,30.1,29.67,SW,225,4.0,-999.0,19,-99.99,,,0.00,0.0,cwc,2013-06-12 08:00:00,
2013-06-12 02:10:00,59.0,30.2,29.67,SW,225,5.0,-999.0,20,-99.99,,,0.00,0.0,cwc,2013-06-12 08:10:00,
2013-06-12 02:20:00,59.0,30.2,29.67,SW,226,3.0,-999.0,20,-99.99,,,0.00,0.0,cwc,2013-06-12 08:20:00,
2013-06-12 02:25:00,59.0,30.2,29.67,SW,226,1.0,-999.0,20,-99.99,,,0.00,0.0,cwc,2013-06-12 08:25:00,
2013-06-12 02:30:00,58.5,29.7,29.68,SW,226,0.0,-999.0,20,-99.99,,,0.00,0.0,cwc,2013-06-12 08:30:00,
2013-06-12 02:35:00,58.3,29.5,29.68,SW,226,3.0,-999.0,20,-99.99,,,0.00,0.0,cwc,2013-06-12 08:35:00,
2013-06-12 02:40:00,58.0,29.2,29.68,SW,226,5.0,-999.0,20,-99.99,,,0.00,0.0,cwc,2013-06-12 08:40:00,
2013-06-12 02:45:00,58.1,29.3,29.68,SW,226,3.0,-999.0,20,-99.99,,,0.00,0.0,cwc,2013-06-12 08:45:00,
2013-06-12 02:50:00,58.0,29.2,29.68,SW,226,3.0,-999.0,20,-99.99,,,0.00,0.0,cwc,2013-06-12 08:50:00,
2013-06-12 02:55:00,57.8,29.0,29.68,SW,226,0.0,-999.0,20,-99.99,,,0.00,0.0,cwc,2013-06-12 08:55:00,
2013-06-12 03:00:00,57.6,29.5,29.68,SW,226,2.0,-999.0,22,-99.99,,,0.00,0.0,cwc,2013-06-12 09:00:00,
2013-06-12 03:05:00,57.1,28.7,29.69,SW,226,2.0,-999.0,21,-99.99,,,0.00,0.0,cwc,2013-06-12 09:05:00,
2013-06-12 03:10:00,56.8,28.4,29.69,SW,226,0.0,-999.0,21,-99.99,,,0.00,0.0,cwc,2013-06-12 09:10:00,
2013-06-12 03:15:00,56.6,28.5,29.69,SW,226,2.0,-999.0,22,-99.99,,,0.00,0.0,cwc,2013-06-12 09:15:00,
2013-06-12 03:20:00,56.4,28.3,29.69,SW,226,2.0,-999.0,22,-99.99,,,0.00,0.0,cwc,2013-06-12 09:20:00,
2013-06-12 03:25:00,56.1,28.0,29.69,SW,226,2.0,-999.0,22,-99.99,,,0.00,0.0,cwc,2013-06-12 09:25:00,
2013-06-12 03:30:00,55.7,28.0,29.69,SW,226,2.0,-999.0,23,-99.99,,,0.00,0.0,cwc,2013-06-12 09:30:00,
2013-06-12 03:35:00,55.5,27.8,29.70,SW,226,2.0,-999.0,23,-99.99,,,0.00,0.0,cwc,2013-06-12 09:35:00,
2013-06-12 03:40:00,55.7,27.6,29.70,SW,226,4.0,-999.0,22,-99.99,,,0.00,0.0,cwc,2013-06-12 09:40:00,
2013-06-12 03:45:00,55.8,28.1,29.70,SW,226,3.0,-999.0,23,-99.99,,,0.00,0.0,cwc,2013-06-12 09:45:00,
2013-06-12 03:50:00,55.8,27.7,29.70,SW,226,0.0,-999.0,22,-99.99,,,0.00,0.0,cwc,2013-06-12 09:50:00,
2013-06-12 03:55:00,55.6,27.9,29.70,SW,226,1.0,-999.0,23,-99.99,,,0.00,0.0,cwc,2013-06-12 09:55:00,
2013-06-12 04:00:00,55.2,27.5,29.70,SW,226,3.0,-999.0,23,-99.99,,,0.00,0.0,cwc,2013-06-12 10:00:00,
2013-06-12 04:05:00,54.8,27.4,29.70,SW,226,2.0,-999.0,24,-99.99,,,0.00,0.0,cwc,2013-06-12 10:05:00,
2013-06-12 04:10:00,54.0,26.6,29.70,SW,226,1.0,-999.0,24,-99.99,,,0.00,0.0,cwc,2013-06-12 10:10:00,
2013-06-12 04:15:00,53.6,26.2,29.71,SW,226,2.0,-999.0,24,-99.99,,,0.00,0.0,cwc,2013-06-12 10:15:00,
2013-06-12 04:20:00,53.3,27.0,29.71,SW,226,0.0,-999.0,27,-99.99,,,0.00,0.0,cwc,2013-06-12 10:20:00,
2013-06-12 04:25:00,52.9,25.9,29.71,SW,226,1.0,-999.0,25,-99.99,,,0.00,0.0,cwc,2013-06-12 10:25:00,
2013-06-12 04:30:00,52.4,25.8,29.72,SW,226,1.0,-999.0,26,-99.99,,,0.00,0.0,cwc,2013-06-12 10:30:00,
2013-06-12 04:35:00,52.4,25.4,29.72,SW,226,0.0,-999.0,25,-99.99,,,0.00,0.0,cwc,2013-06-12 10:35:00,
2013-06-12 04:40:00,52.7,25.7,29.72,SW,226,1.0,-999.0,25,-99.99,,,0.00,0.0,cwc,2013-06-12 10:40:00,
2013-06-12 04:45:00,53.0,26.0,29.72,SW,226,3.0,-999.0,25,-99.99,,,0.00,0.0,cwc,2013-06-12 10:45:00,
2013-06-12 04:50:00,53.4,27.1,29.73,SW,226,0.0,-999.0,27,-99.99,,,0.00,0.0,cwc,2013-06-12 10:50:00,
2013-06-12 04:55:00,53.4,26.4,29.73,SW,226,2.0,-999.0,25,-99.99,,,0.00,0.0,cwc,2013-06-12 10:55:00,
2013-06-12 05:00:00,53.4,26.4,29.73,SW,226,3.0,-999.0,25,-99.99,,,0.00,0.0,cwc,2013-06-12 11:00:00,
2013-06-12 05:05:00,53.6,26.6,29.73,SW,226,0.0,-999.0,25,-99.99,,,0.00,0.0,cwc,2013-06-12 11:05:00,
2013-06-12 05:10:00,53.5,26.5,29.73,SW,226,0.0,-999.0,25,-99.99,,,0.00,0.0,cwc,2013-06-12 11:10:00,
2013-06-12 05:15:00,53.2,26.6,29.74,SW,226,0.0,-999.0,26,-99.99,,,0.00,0.0,cwc,2013-06-12 11:15:00,
2013-06-12 05:20:00,52.9,27.7,29.74,SW,226,0.0,-999.0,30,-99.99,,,0.00,0.0,cwc,2013-06-12 11:20:00,
2013-06-12 05:25:00,52.3,27.5,29.74,SW,226,3.0,-999.0,31,-99.99,,,0.00,0.0,cwc,2013-06-12 11:25:00,
2013-06-12 05:30:00,51.7,26.1,29.74,SW,226,1.0,-999.0,29,-99.99,,,0.00,0.0,cwc,2013-06-12 11:30:00,
2013-06-12 05:40:00,51.0,25.1,29.74,SW,226,3.0,-999.0,28,-99.99,,,0.00,0.0,cwc,2013-06-12 11:40:00,
2013-06-12 05:45:00,51.2,26.0,29.75,SW,226,0.0,-999.0,30,-99.99,,,0.00,0.0,cwc,2013-06-12 11:45:00,
2013-06-12 05:50:00,51.1,25.5,29.75,SW,226,0.0,-999.0,29,-99.99,,,0.00,5.0,cwc,2013-06-12 11:50:00,
2013-06-12 05:55:00,50.9,25.0,29.75,SW,226,0.0,-999.0,28,-99.99,,,0.00,7.0,cwc,2013-06-12 11:55:00,
2013-06-12 06:00:00,50.9,25.0,29.75,SW,226,0.0,-999.0,28,-99.99,,,0.00,9.0,cwc,2013-06-12 12:00:00,
2013-06-12 06:05:00,51.3,25.4,29.75,SW,226,0.0,-999.0,28,-99.99,,,0.00,12.0,cwc,2013-06-12 12:05:00,
2013-06-12 06:10:00,51.4,25.8,29.75,SW,226,0.0,-999.0,29,-99.99,,,0.00,18.0,cwc,2013-06-12 12:10:00,
2013-06-12 06:15:00,51.4,25.5,29.75,SW,226,0.0,-999.0,28,-99.99,,,0.00,28.0,cwc,2013-06-12 12:15:00,
2013-06-12 06:20:00,51.4,25.8,29.75,SW,226,1.0,-999.0,29,-99.99,,,0.00,51.0,cwc,2013-06-12 12:20:00,
2013-06-12 06:25:00,51.5,25.9,29.75,SW,226,0.0,-999.0,29,-99.99,,,0.00,63.0,cwc,2013-06-12 12:25:00,
2013-06-12 06:30:00,51.9,26.0,29.75,SW,226,0.0,-999.0,28,-99.99,,,0.00,81.0,cwc,2013-06-12 12:30:00,
2013-06-12 06:35:00,52.4,29.0,29.76,SW,226,0.0,-999.0,35,-99.99,,,0.00,95.0,cwc,2013-06-12 12:35:00,
2013-06-12 06:40:00,52.7,29.7,29.75,SW,226,0.0,-999.0,36,-99.99,,,0.00,70.0,cwc,2013-06-12 12:40:00,
2013-06-12 06:45:00,52.9,27.0,29.75,SW,227,0.0,-999.0,28,-99.99,,,0.00,109.0,cwc,2013-06-12 12:45:00,
2013-06-12 06:50:00,53.8,28.6,29.75,SW,228,3.0,-999.0,30,-99.99,,,0.00,74.0,cwc,2013-06-12 12:50:00,
2013-06-12 06:55:00,54.9,29.3,29.75,WSW,240,3.0,-999.0,29,-99.99,,,0.00,69.0,cwc,2013-06-12 12:55:00,
2013-06-12 07:00:00,56.4,29.8,29.75,NNW,338,2.0,-999.0,26,-99.99,,,0.00,77.0,cwc,2013-06-12 13:00:00,
2013-06-12 07:05:00,57.3,31.0,29.76,NNW,339,0.0,-999.0,27,-99.99,,,0.00,95.0,cwc,2013-06-12 13:05:00,
2013-06-12 07:10:00,57.7,30.7,29.76,NNW,339,0.0,-999.0,25,-99.99,,,0.00,102.0,cwc,2013-06-12 13:10:00,
2013-06-12 07:15:00,58.1,31.5,29.76,NNW,339,2.0,-999.0,26,-99.99,,,0.00,102.0,cwc,2013-06-12 13:15:00,
2013-06-12 07:20:00,58.2,31.6,29.77,NNW,329,3.0,-999.0,26,-99.99,,,0.00,114.0,cwc,2013-06-12 13:20:00,
2013-06-12 07:25:00,58.4,31.8,29.77,NNW,329,0.0,-999.0,26,-99.99,,,0.00,121.0,cwc,2013-06-12 13:25:00,
2013-06-12 07:30:00,59.0,34.2,29.77,NNW,329,0.0,-999.0,31,-99.99,,,0.00,128.0,cwc,2013-06-12 13:30:00,
2013-06-12 07:35:00,59.0,32.4,29.77,NNW,329,2.0,-999.0,26,-99.99,,,0.00,128.0,cwc,2013-06-12 13:35:00,
2013-06-12 07:40:00,58.9,32.6,29.77,NNW,329,0.0,-999.0,27,-99.99,,,0.00,134.0,cwc,2013-06-12 13:40:00,
2013-06-12 07:45:00,59.0,33.1,29.77,NNW,329,0.0,-999.0,28,-99.99,,,0.00,200.0,cwc,2013-06-12 13:45:00,
2013-06-12 07:50:00,59.0,34.2,29.77,NNW,329,0.0,-999.0,31,-99.99,,,0.00,230.0,cwc,2013-06-12 13:50:00,
2013-06-12 07:55:00,59.0,34.9,29.77,NNW,329,0.0,-999.0,33,-99.99,,,0.00,183.0,cwc,2013-06-12 13:55:00,
2013-06-12 08:00:00,59.5,33.2,29.77,NNW,329,0.0,-999.0,27,-99.99,,,0.00,149.0,cwc,2013-06-12 14:00:00,
2013-06-12 08:05:00,60.1,33.5,29.77,NNW,329,0.0,-999.0,26,-99.99,,,0.00,315.0,cwc,2013-06-12 14:05:00,
2013-06-12 08:10:00,60.9,33.5,29.77,NNW,329,0.0,-999.0,24,-99.99,,,0.00,271.0,cwc,2013-06-12 14:10:00,
2013-06-12 08:15:00,61.9,34.5,29.77,NNW,329,0.0,-999.0,24,-99.99,,,0.00,199.0,cwc,2013-06-12 14:15:00,
2013-06-12 08:20:00,62.8,35.1,29.77,NNW,329,0.0,-999.0,23,-99.99,,,0.00,176.0,cwc,2013-06-12 14:20:00,
2013-06-12 08:25:00,63.8,37.2,29.77,NNW,329,0.0,-999.0,26,-99.99,,,0.00,482.0,cwc,2013-06-12 14:25:00,
2013-06-12 08:30:00,64.9,38.6,29.77,NNW,329,2.0,-999.0,27,-99.99,,,0.00,497.0,cwc,2013-06-12 14:30:00,
2013-06-12 08:35:00,65.7,38.0,29.77,NNW,329,0.0,-999.0,23,-99.99,,,0.00,524.0,cwc,2013-06-12 14:35:00,
2013-06-12 08:40:00,66.8,39.4,29.77,NNW,329,0.0,-999.0,24,-99.99,,,0.00,536.0,cwc,2013-06-12 14:40:00,
2013-06-12 08:45:00,67.9,40.2,29.77,NNW,329,0.0,-999.0,23,-99.99,,,0.00,554.0,cwc,2013-06-12 14:45:00,
2013-06-12 08:50:00,69.2,40.4,29.77,NNW,329,0.0,-999.0,20,-99.99,,,0.00,571.0,cwc,2013-06-12 14:50:00,
2013-06-12 08:55:00,70.2,40.7,29.76,NNW,329,0.0,-999.0,18,-99.99,,,0.00,592.0,cwc,2013-06-12 14:55:00,
2013-06-12 09:00:00,71.2,42.0,29.76,NNW,329,1.0,-999.0,19,-99.99,,,0.00,608.0,cwc,2013-06-12 15:00:00,
2013-06-12 09:05:00,72.1,42.6,29.76,NNW,329,1.0,-999.0,18,-99.99,,,0.00,652.0,cwc,2013-06-12 15:05:00,
2013-06-12 09:10:00,72.6,43.1,29.76,NNW,329,0.0,-999.0,18,-99.99,,,0.00,666.0,cwc,2013-06-12 15:10:00,
2013-06-12 09:15:00,72.9,43.4,29.76,NNW,329,1.0,-999.0,18,-99.99,,,0.00,645.0,cwc,2013-06-12 15:15:00,
2013-06-12 09:20:00,73.5,44.3,29.75,NNW,329,0.0,-999.0,19,-99.99,,,0.00,712.0,cwc,2013-06-12 15:20:00,
2013-06-12 09:25:00,74.3,44.8,29.75,NNW,329,1.0,-999.0,18,-99.99,,,0.00,766.0,cwc,2013-06-12 15:25:00,
2013-06-12 09:30:00,75.5,46.0,29.75,NNW,330,0.0,-999.0,18,-99.99,,,0.00,823.0,cwc,2013-06-12 15:30:00,
2013-06-12 09:35:00,76.5,46.6,29.75,NNW,331,0.0,-999.0,17,-99.99,,,0.00,441.0,cwc,2013-06-12 15:35:00,
2013-06-12 09:40:00,77.3,47.1,29.75,NNW,331,0.0,-999.0,16,-99.99,,,0.00,422.0,cwc,2013-06-12 15:40:00,
2013-06-12 09:45:00,78.2,48.0,29.75,NNW,331,0.0,-999.0,16,-99.99,,,0.00,823.0,cwc,2013-06-12 15:45:00,
2013-06-12 09:50:00,79.1,48.9,29.75,NNW,330,0.0,-999.0,16,-99.99,,,0.00,654.0,cwc,2013-06-12 15:50:00,
2013-06-12 09:55:00,80.1,49.5,29.75,NNW,330,0.0,-999.0,15,-99.99,,,0.00,554.0,cwc,2013-06-12 15:55:00,
2013-06-12 10:00:00,80.9,50.3,29.74,NNW,331,4.0,-999.0,15,-99.99,,,0.00,842.0,cwc,2013-06-12 16:00:00,
2013-06-12 10:05:00,81.3,50.7,29.74,NNW,330,0.0,-999.0,15,-99.99,,,0.00,865.0,cwc,2013-06-12 16:05:00,
2013-06-12 10:10:00,82.0,51.0,29.74,NNW,331,0.0,-999.0,14,-99.99,,,0.00,640.0,cwc,2013-06-12 16:10:00,
2013-06-12 10:15:00,82.5,51.5,29.74,NNW,331,1.0,-999.0,14,-99.99,,,0.00,550.0,cwc,2013-06-12 16:15:00,
2013-06-12 10:20:00,82.8,51.8,29.74,NNW,331,1.0,-999.0,14,-99.99,,,0.00,526.0,cwc,2013-06-12 16:20:00,
2013-06-12 10:25:00,83.2,52.6,29.74,NNW,331,1.0,-999.0,15,-99.99,,,0.00,694.0,cwc,2013-06-12 16:25:00,
2013-06-12 10:30:00,83.9,52.9,29.73,NNW,337,2.0,-999.0,14,-99.99,,,0.00,643.0,cwc,2013-06-12 16:30:00,
2013-06-12 10:35:00,84.7,53.7,29.73,NNW,342,4.0,-999.0,14,-99.99,,,0.00,615.0,cwc,2013-06-12 16:35:00,
2013-06-12 10:40:00,85.0,54.0,29.73,North,360,3.0,-999.0,14,-99.99,,,0.00,728.0,cwc,2013-06-12 16:40:00,
2013-06-12 10:45:00,85.5,54.2,29.73,NNW,342,3.0,-999.0,13,-99.99,,,0.00,650.0,cwc,2013-06-12 16:45:00,
2013-06-12 10:50:00,85.9,54.9,29.73,North,355,2.0,-999.0,14,-99.99,,,0.00,863.0,cwc,2013-06-12 16:50:00,
2013-06-12 10:55:00,86.7,55.4,29.73,NNE,19,1.0,-999.0,13,-99.99,,,0.00,914.0,cwc,2013-06-12 16:55:00,
2013-06-12 11:00:00,87.4,56.1,29.73,NE,46,6.0,-999.0,13,-99.99,,,0.00,425.0,cwc,2013-06-12 17:00:00,
2013-06-12 11:10:00,87.3,56.0,29.72,NNE,29,4.0,-999.0,13,-99.99,,,0.00,650.0,cwc,2013-06-12 17:10:00,
2013-06-12 11:15:00,87.5,56.2,29.72,North,9,2.0,-999.0,13,-99.99,,,0.00,1011.0,cwc,2013-06-12 17:15:00,
2013-06-12 11:20:00,88.4,57.1,29.72,North,11,10.0,-999.0,13,-99.99,,,0.00,884.0,cwc,2013-06-12 17:20:00,
2013-06-12 11:25:00,89.3,57.6,29.72,North,5,9.0,-999.0,12,-99.99,,,0.00,949.0,cwc,2013-06-12 17:25:00,
2013-06-12 11:30:00,89.3,57.3,29.72,NNE,22,3.0,-999.0,11,-99.99,,,0.00,983.0,cwc,2013-06-12 17:30:00,
2013-06-12 11:35:00,89.4,57.4,29.72,NNE,14,3.0,-999.0,11,-99.99,,,0.00,991.0,cwc,2013-06-12 17:35:00,
2013-06-12 11:40:00,89.9,57.9,29.72,NNE,15,0.0,-999.0,11,-99.99,,,0.00,1013.0,cwc,2013-06-12 17:40:00,
2013-06-12 11:45:00,91.1,59.1,29.71,WNW,299,0.0,-999.0,11,-99.99,,,0.00,1039.0,cwc,2013-06-12 17:45:00,
2013-06-12 11:50:00,91.8,59.8,29.71,North,5,5.0,-999.0,11,-99.99,,,0.00,986.0,cwc,2013-06-12 17:50:00,
2013-06-12 11:55:00,92.2,59.8,29.72,North,360,0.0,-999.0,10,-99.99,,,0.00,1016.0,cwc,2013-06-12 17:55:00,
2013-06-12 12:00:00,92.9,60.5,29.71,SSW,198,2.0,-999.0,10,-99.99,,,0.00,1030.0,cwc,2013-06-12 18:00:00,
2013-06-12 12:05:00,93.5,61.1,29.71,NE,55,7.0,-999.0,10,-99.99,,,0.00,1027.0,cwc,2013-06-12 18:05:00,
2013-06-12 12:15:00,93.3,60.9,29.71,SSW,205,3.0,-999.0,10,-99.99,,,0.00,1016.0,cwc,2013-06-12 18:15:00,
2013-06-12 12:20:00,93.1,60.7,29.70,South,173,5.0,-999.0,10,-99.99,,,0.00,1013.0,cwc,2013-06-12 18:20:00,
2013-06-12 12:25:00,93.3,60.9,29.70,South,187,6.0,-999.0,10,-99.99,,,0.00,1014.0,cwc,2013-06-12 18:25:00,
2013-06-12 12:30:00,93.5,61.1,29.70,SSW,209,6.0,-999.0,10,-99.99,,,0.00,1018.0,cwc,2013-06-12 18:30:00,
2013-06-12 12:35:00,93.6,61.2,29.70,NE,53,3.0,-999.0,10,-99.99,,,0.00,1023.0,cwc,2013-06-12 18:35:00,
2013-06-12 12:40:00,93.4,61.0,29.69,WSW,254,6.0,-999.0,10,-99.99,,,0.00,1027.0,cwc,2013-06-12 18:40:00,
2013-06-12 12:45:00,93.1,60.7,29.69,North,5,5.0,-999.0,10,-99.99,,,0.00,1028.0,cwc,2013-06-12 18:45:00,
2013-06-12 12:50:00,93.5,61.5,29.69,SE,142,2.0,-999.0,11,-99.99,,,0.00,1030.0,cwc,2013-06-12 18:50:00,
2013-06-12 12:55:00,93.9,61.5,29.69,South,175,5.0,-999.0,10,-99.99,,,0.00,1046.0,cwc,2013-06-12 18:55:00,
2013-06-12 13:00:00,94.2,61.8,29.68,SE,142,3.0,-999.0,10,-99.99,,,0.00,1069.0,cwc,2013-06-12 19:00:00,
2013-06-12 13:05:00,94.4,62.0,29.69,SW,217,8.0,-999.0,10,-99.99,,,0.00,1079.0,cwc,2013-06-12 19:05:00,
2013-06-12 13:10:00,93.8,61.4,29.68,SSW,213,2.0,-999.0,10,-99.99,,,0.00,1058.0,cwc,2013-06-12 19:10:00,
2013-06-12 13:15:00,94.1,61.7,29.68,SSW,205,15.0,-999.0,10,-99.99,,,0.00,1063.0,cwc,2013-06-12 19:15:00,
2013-06-12 13:20:00,94.5,62.1,29.67,South,171,2.0,-999.0,10,-99.99,,,0.00,1037.0,cwc,2013-06-12 19:20:00,
2013-06-12 13:25:00,94.7,62.3,29.67,SSE,161,3.0,-999.0,10,-99.99,,,0.00,977.0,cwc,2013-06-12 19:25:00,
2013-06-12 13:30:00,94.9,62.5,29.67,SW,230,6.0,-999.0,10,-99.99,,,0.00,1020.0,cwc,2013-06-12 19:30:00,
2013-06-12 13:35:00,94.5,62.1,29.67,SSW,198,14.0,-999.0,10,-99.99,,,0.00,1018.0,cwc,2013-06-12 19:35:00,
2013-06-12 13:40:00,94.1,61.7,29.67,West,260,6.0,-999.0,10,-99.99,,,0.00,1004.0,cwc,2013-06-12 19:40:00,
2013-06-12 13:45:00,94.3,61.9,29.67,WSW,239,5.0,-999.0,10,-99.99,,,0.00,1023.0,cwc,2013-06-12 19:45:00,
2013-06-12 13:50:00,94.4,62.0,29.67,West,268,3.0,-999.0,10,-99.99,,,0.00,1049.0,cwc,2013-06-12 19:50:00,
2013-06-12 13:55:00,94.4,62.0,29.66,SSW,211,8.0,-999.0,10,-99.99,,,0.00,1018.0,cwc,2013-06-12 19:55:00,
2013-06-12 14:00:00,94.1,61.7,29.66,WSW,254,2.0,-999.0,10,-99.99,,,0.00,1009.0,cwc,2013-06-12 20:00:00,
2013-06-12 14:05:00,94.8,62.4,29.65,SSE,163,3.0,-999.0,10,-99.99,,,0.00,988.0,cwc,2013-06-12 20:05:00,
2013-06-12 14:10:00,95.2,62.8,29.65,WSW,249,5.0,-999.0,10,-99.99,,,0.00,969.0,cwc,2013-06-12 20:10:00,
2013-06-12 14:15:00,94.8,62.4,29.65,SSW,213,6.0,-999.0,10,-99.99,,,0.00,867.0,cwc,2013-06-12 20:15:00,
2013-06-12 14:20:00,94.8,62.4,29.65,SSW,200,0.0,-999.0,10,-99.99,,,0.00,969.0,cwc,2013-06-12 20:20:00,
2013-06-12 14:30:00,95.1,62.7,29.64,SSW,194,0.0,-999.0,10,-99.99,,,0.00,926.0,cwc,2013-06-12 20:30:00,
2013-06-12 14:35:00,95.6,62.8,29.64,WSW,238,0.0,-999.0,9,-99.99,,,0.00,954.0,cwc,2013-06-12 20:35:00,
2013-06-12 14:40:00,95.9,63.5,29.64,NW,305,4.0,-999.0,10,-99.99,,,0.00,937.0,cwc,2013-06-12 20:40:00,
2013-06-12 14:45:00,96.0,63.2,29.64,SSW,199,7.0,-999.0,9,-99.99,,,0.00,947.0,cwc,2013-06-12 20:45:00,
2013-06-12 14:50:00,96.5,63.7,29.63,SSW,213,4.0,-999.0,9,-99.99,,,0.00,954.0,cwc,2013-06-12 20:50:00,
2013-06-12 14:55:00,97.0,64.6,29.63,WSW,252,3.0,-999.0,10,-99.99,,,0.00,947.0,cwc,2013-06-12 20:55:00,
2013-06-12 15:00:00,97.5,64.7,29.63,West,269,2.0,-999.0,9,-99.99,,,0.00,940.0,cwc,2013-06-12 21:00:00,
2013-06-12 15:05:00,97.8,65.0,29.63,SW,227,5.0,-999.0,9,-99.99,,,0.00,944.0,cwc,2013-06-12 21:05:00,
2013-06-12 15:10:00,97.7,64.9,29.63,SSW,199,8.0,-999.0,9,-99.99,,,0.00,958.0,cwc,2013-06-12 21:10:00,
2013-06-12 15:15:00,96.9,64.1,29.62,WSW,253,11.0,-999.0,9,-99.99,,,0.00,830.0,cwc,2013-06-12 21:15:00,
2013-06-12 15:20:00,96.6,63.8,29.62,SSW,192,1.0,-999.0,9,-99.99,,,0.00,824.0,cwc,2013-06-12 21:20:00,
2013-06-12 15:25:00,96.8,64.0,29.61,South,184,7.0,-999.0,9,-99.99,,,0.00,840.0,cwc,2013-06-12 21:25:00,
2013-06-12 15:30:00,97.0,64.2,29.62,South,188,3.0,-999.0,9,-99.99,,,0.00,770.0,cwc,2013-06-12 21:30:00,
2013-06-12 15:35:00,96.7,63.9,29.62,South,190,6.0,-999.0,9,-99.99,,,0.00,851.0,cwc,2013-06-12 21:35:00,
2013-06-12 15:40:00,96.2,63.4,29.61,SSW,194,6.0,-999.0,9,-99.99,,,0.00,840.0,cwc,2013-06-12 21:40:00,
2013-06-12 15:45:00,96.2,63.4,29.61,WNW,302,1.0,-999.0,9,-99.99,,,0.00,840.0,cwc,2013-06-12 21:45:00,
2013-06-12 15:50:00,96.6,63.8,29.60,SSE,161,2.0,-999.0,9,-99.99,,,0.00,856.0,cwc,2013-06-12 21:50:00,
2013-06-12 15:55:00,96.5,63.7,29.60,SW,227,15.0,-999.0,9,-99.99,,,0.00,872.0,cwc,2013-06-12 21:55:00,
2013-06-12 16:00:00,96.3,63.5,29.60,SW,227,22.0,-999.0,9,-99.99,,,0.00,765.0,cwc,2013-06-12 22:00:00,
2013-06-12 16:05:00,96.4,63.6,29.60,SSE,153,4.0,-999.0,9,-99.99,,,0.00,775.0,cwc,2013-06-12 22:05:00,
2013-06-12 16:10:00,96.5,63.7,29.60,West,262,0.0,-999.0,9,-99.99,,,0.00,779.0,cwc,2013-06-12 22:10:00,
2013-06-12 16:15:00,96.8,64.0,29.59,South,178,1.0,-999.0,9,-99.99,,,0.00,784.0,cwc,2013-06-12 22:15:00,
2013-06-12 16:20:00,96.8,64.0,29.59,SW,236,10.0,-999.0,9,-99.99,,,0.00,728.0,cwc,2013-06-12 22:20:00,
2013-06-12 16:25:00,96.2,63.4,29.59,SW,227,7.0,-999.0,9,-99.99,,,0.00,754.0,cwc,2013-06-12 22:25:00,
2013-06-12 16:30:00,96.2,63.4,29.59,SSW,213,3.0,-999.0,9,-99.99,,,0.00,722.0,cwc,2013-06-12 22:30:00,
2013-06-12 16:35:00,96.3,63.5,29.59,South,188,4.0,-999.0,9,-99.99,,,0.00,707.0,cwc,2013-06-12 22:35:00,
2013-06-12 16:40:00,96.6,63.8,29.59,South,173,5.0,-999.0,9,-99.99,,,0.00,694.0,cwc,2013-06-12 22:40:00,
2013-06-12 16:45:00,96.8,64.0,29.59,SSW,208,0.0,-999.0,9,-99.99,,,0.00,680.0,cwc,2013-06-12 22:45:00,
2013-06-12 16:50:00,96.9,64.1,29.59,SW,233,2.0,-999.0,9,-99.99,,,0.00,647.0,cwc,2013-06-12 22:50:00,
2013-06-12 16:55:00,96.8,64.0,29.59,SW,214,6.0,-999.0,9,-99.99,,,0.00,626.0,cwc,2013-06-12 22:55:00,
2013-06-12 17:00:00,96.6,63.8,29.59,SSW,196,8.0,-999.0,9,-99.99,,,0.00,621.0,cwc,2013-06-12 23:00:00,
2013-06-12 17:05:00,96.3,63.5,29.59,SW,219,0.0,-999.0,9,-99.99,,,0.00,584.0,cwc,2013-06-12 23:05:00,
2013-06-12 17:10:00,96.4,63.6,29.58,SSW,210,3.0,-999.0,9,-99.99,,,0.00,596.0,cwc,2013-06-12 23:10:00,
2013-06-12 17:15:00,96.7,63.9,29.58,SSW,210,10.0,-999.0,9,-99.99,,,0.00,554.0,cwc,2013-06-12 23:15:00,
2013-06-12 17:20:00,96.3,63.5,29.58,South,178,4.0,-999.0,9,-99.99,,,0.00,555.0,cwc,2013-06-12 23:20:00,
2013-06-12 17:25:00,96.2,63.4,29.58,SW,233,2.0,-999.0,9,-99.99,,,0.00,524.0,cwc,2013-06-12 23:25:00,
2013-06-12 17:30:00,95.7,62.9,29.58,SSW,204,5.0,-999.0,9,-99.99,,,0.00,144.0,cwc,2013-06-12 23:30:00,
2013-06-12 17:35:00,95.1,62.3,29.58,SW,223,0.0,-999.0,9,-99.99,,,0.00,199.0,cwc,2013-06-12 23:35:00,
2013-06-12 17:40:00,94.8,62.4,29.58,SSW,212,2.0,-999.0,10,-99.99,,,0.00,388.0,cwc,2013-06-12 23:40:00,
2013-06-12 17:45:00,94.8,62.4,29.58,SW,218,14.0,-999.0,10,-99.99,,,0.00,237.0,cwc,2013-06-12 23:45:00,
2013-06-12 17:50:00,94.3,61.5,29.58,SSW,209,8.0,-999.0,9,-99.99,,,0.00,227.0,cwc,2013-06-12 23:50:00,
2013-06-12 17:55:00,94.0,61.6,29.58,SW,232,5.0,-999.0,10,-99.99,,,0.00,265.0,cwc,2013-06-12 23:55:00,
2013-06-12 18:00:00,93.9,61.1,29.58,West,275,7.0,-999.0,9,-99.99,,,0.00,234.0,cwc,2013-06-13 00:00:00,
2013-06-12 18:10:00,93.6,61.2,29.58,SW,227,5.0,-999.0,10,-99.99,,,0.00,91.0,cwc,2013-06-13 00:10:00,
2013-06-12 18:15:00,93.3,60.9,29.58,SSW,193,4.0,-999.0,10,-99.99,,,0.00,72.0,cwc,2013-06-13 00:15:00,
2013-06-12 18:20:00,92.8,60.4,29.58,SSW,211,7.0,-999.0,10,-99.99,,,0.00,67.0,cwc,2013-06-13 00:20:00,
2013-06-12 18:25:00,92.4,60.0,29.58,SW,218,9.0,-999.0,10,-99.99,,,0.00,62.0,cwc,2013-06-13 00:25:00,
2013-06-12 18:30:00,92.1,59.7,29.58,South,182,8.0,-999.0,10,-99.99,,,0.00,56.0,cwc,2013-06-13 00:30:00,
2013-06-12 18:40:00,91.8,59.4,29.58,SSW,196,7.0,-999.0,10,-99.99,,,0.00,53.0,cwc,2013-06-13 00:40:00,
2013-06-12 18:45:00,91.7,59.3,29.58,SSW,209,5.0,-999.0,10,-99.99,,,0.00,51.0,cwc,2013-06-13 00:45:00,
2013-06-12 18:50:00,91.5,59.1,29.58,SSW,209,4.0,-999.0,10,-99.99,,,0.00,47.0,cwc,2013-06-13 00:50:00,
2013-06-12 18:55:00,91.4,59.0,29.58,SSW,202,5.0,-999.0,10,-99.99,,,0.00,49.0,cwc,2013-06-13 00:55:00,
2013-06-12 19:00:00,91.2,58.8,29.58,South,190,2.0,-999.0,10,-99.99,,,0.00,47.0,cwc,2013-06-13 01:00:00,
2013-06-12 19:05:00,91.1,58.7,29.58,SSW,205,5.0,-999.0,10,-99.99,,,0.00,46.0,cwc,2013-06-13 01:05:00,
2013-06-12 19:10:00,91.1,58.7,29.59,SSW,206,4.0,-999.0,10,-99.99,,,0.00,44.0,cwc,2013-06-13 01:10:00,
2013-06-12 19:15:00,91.0,58.6,29.59,SSW,206,0.0,-999.0,10,-99.99,,,0.00,40.0,cwc,2013-06-13 01:15:00,
2013-06-12 19:20:00,90.9,58.5,29.59,SSW,206,2.0,-999.0,10,-99.99,,,0.00,35.0,cwc,2013-06-13 01:20:00,
2013-06-12 19:25:00,90.6,58.2,29.60,SSW,207,5.0,-999.0,10,-99.99,,,0.00,32.0,cwc,2013-06-13 01:25:00,
2013-06-12 19:30:00,90.5,58.1,29.60,SSW,208,4.0,-999.0,10,-99.99,,,0.00,28.0,cwc,2013-06-13 01:30:00,
2013-06-12 19:35:00,90.2,57.8,29.60,SSW,195,5.0,-999.0,10,-99.99,,,0.00,25.0,cwc,2013-06-13 01:35:00,
2013-06-12 19:40:00,90.0,57.6,29.60,SW,236,1.0,-999.0,10,-99.99,,,0.00,19.0,cwc,2013-06-13 01:40:00,
2013-06-12 19:45:00,89.7,57.3,29.60,SW,234,0.0,-999.0,10,-99.99,,,0.00,16.0,cwc,2013-06-13 01:45:00,
2013-06-12 19:50:00,89.4,57.0,29.60,SE,137,1.0,-999.0,10,-99.99,,,0.00,12.0,cwc,2013-06-13 01:50:00,
2013-06-12 19:55:00,89.0,56.6,29.60,East,95,6.0,-999.0,10,-99.99,,,0.00,9.0,cwc,2013-06-13 01:55:00,
2013-06-12 20:00:00,88.6,56.2,29.61,East,92,0.0,-999.0,10,-99.99,,,0.00,7.0,cwc,2013-06-13 02:00:00,
2013-06-12 20:05:00,88.2,55.8,29.61,East,98,1.0,-999.0,10,-99.99,,,0.00,5.0,cwc,2013-06-13 02:05:00,
2013-06-12 20:10:00,87.8,55.4,29.61,East,96,1.0,-999.0,10,-99.99,,,0.00,0.0,cwc,2013-06-13 02:10:00,
2013-06-12 20:15:00,87.4,55.0,29.61,East,96,2.0,-999.0,10,-99.99,,,0.00,0.0,cwc,2013-06-13 02:15:00,
2013-06-12 20:25:00,86.6,54.2,29.61,ESE,110,1.0,-999.0,10,-99.99,,,0.00,0.0,cwc,2013-06-13 02:25:00,
2013-06-12 20:30:00,86.3,53.9,29.62,ESE,110,0.0,-999.0,10,-99.99,,,0.00,0.0,cwc,2013-06-13 02:30:00,
2013-06-12 20:35:00,86.0,53.6,29.62,ESE,110,0.0,-999.0,10,-99.99,,,0.00,0.0,cwc,2013-06-13 02:35:00,
2013-06-12 20:40:00,85.6,53.2,29.62,ESE,110,0.0,-999.0,10,-99.99,,,0.00,0.0,cwc,2013-06-13 02:40:00,
2013-06-12 20:45:00,85.2,53.2,29.63,ESE,110,0.0,-999.0,11,-99.99,,,0.00,0.0,cwc,2013-06-13 02:45:00,
2013-06-12 20:50:00,84.7,52.7,29.63,ESE,110,0.0,-999.0,11,-99.99,,,0.00,0.0,cwc,2013-06-13 02:50:00,
2013-06-12 20:55:00,84.1,52.1,29.64,ESE,110,0.0,-999.0,11,-99.99,,,0.00,0.0,cwc,2013-06-13 02:55:00,
2013-06-12 21:00:00,83.5,51.8,29.64,ESE,110,0.0,-999.0,12,-99.99,,,0.00,0.0,cwc,2013-06-13 03:00:00,
2013-06-12 21:05:00,83.0,51.3,29.65,ESE,110,0.0,-999.0,12,-99.99,,,0.00,0.0,cwc,2013-06-13 03:05:00,
2013-06-12 21:10:00,82.2,50.9,29.65,ESE,110,2.0,-999.0,13,-99.99,,,0.00,0.0,cwc,2013-06-13 03:10:00,
2013-06-12 21:15:00,81.3,50.0,29.65,ESE,110,0.0,-999.0,13,-99.99,,,0.00,0.0,cwc,2013-06-13 03:15:00,
2013-06-12 21:20:00,80.4,49.1,29.66,ESE,110,0.0,-999.0,13,-99.99,,,0.00,0.0,cwc,2013-06-13 03:20:00,
2013-06-12 21:25:00,79.7,48.4,29.66,ESE,110,0.0,-999.0,13,-99.99,,,0.00,0.0,cwc,2013-06-13 03:25:00,
2013-06-12 21:30:00,79.1,48.1,29.66,ESE,110,1.0,-999.0,14,-99.99,,,0.00,0.0,cwc,2013-06-13 03:30:00,
2013-06-12 21:40:00,78.3,47.3,29.66,ESE,110,1.0,-999.0,14,-99.99,,,0.00,0.0,cwc,2013-06-13 03:40:00,
2013-06-12 21:45:00,77.7,46.7,29.67,ESE,110,3.0,-999.0,14,-99.99,,,0.00,0.0,cwc,2013-06-13 03:45:00,
2013-06-12 21:50:00,77.4,46.8,29.67,ESE,107,1.0,-999.0,15,-99.99,,,0.00,0.0,cwc,2013-06-13 03:50:00,
2013-06-12 21:55:00,76.4,45.4,29.67,ESE,107,0.0,-999.0,14,-99.99,,,0.00,0.0,cwc,2013-06-13 03:55:00,
2013-06-12 22:00:00,76.3,45.7,29.68,ESE,109,3.0,-999.0,15,-99.99,,,0.00,0.0,cwc,2013-06-13 04:00:00,
2013-06-12 22:05:00,75.7,44.7,29.67,ESE,109,1.0,-999.0,14,-99.99,,,0.00,0.0,cwc,2013-06-13 04:05:00,
2013-06-12 22:10:00,75.4,44.8,29.68,ESE,109,2.0,-999.0,15,-99.99,,,0.00,0.0,cwc,2013-06-13 04:10:00,
2013-06-12 22:15:00,74.8,44.2,29.68,ESE,109,3.0,-999.0,15,-99.99,,,0.00,0.0,cwc,2013-06-13 04:15:00,
2013-06-12 22:20:00,74.5,43.9,29.68,ESE,117,4.0,-999.0,15,-99.99,,,0.00,0.0,cwc,2013-06-13 04:20:00,
2013-06-12 22:25:00,74.5,44.3,29.68,ESE,118,0.0,-999.0,16,-99.99,,,0.00,0.0,cwc,2013-06-13 04:25:00,
2013-06-12 22:30:00,74.2,44.0,29.68,ESE,118,0.0,-999.0,16,-99.99,,,0.00,0.0,cwc,2013-06-13 04:30:00,
2013-06-12 22:40:00,73.4,43.2,29.68,ESE,119,2.0,-999.0,16,-99.99,,,0.00,0.0,cwc,2013-06-13 04:40:00,
2013-06-12 22:45:00,72.8,42.6,29.68,SE,133,3.0,-999.0,16,-99.99,,,0.00,0.0,cwc,2013-06-13 04:45:00,
2013-06-12 22:50:00,72.3,42.1,29.68,SE,133,4.0,-999.0,16,-99.99,,,0.00,0.0,cwc,2013-06-13 04:50:00,
2013-06-12 22:55:00,72.1,41.9,29.69,SE,133,1.0,-999.0,16,-99.99,,,0.00,0.0,cwc,2013-06-13 04:55:00,
2013-06-12 23:00:00,72.0,41.8,29.69,SE,133,1.0,-999.0,16,-99.99,,,0.00,0.0,cwc,2013-06-13 05:00:00,
2013-06-12 23:05:00,71.5,41.3,29.70,SE,134,4.0,-999.0,16,-99.99,,,0.00,0.0,cwc,2013-06-13 05:05:00,
2013-06-12 23:10:00,71.1,40.9,29.69,SE,143,4.0,-999.0,16,-99.99,,,0.00,0.0,cwc,2013-06-13 05:10:00,
2013-06-12 23:15:00,70.8,40.6,29.70,SE,144,4.0,-999.0,16,-99.99,,,0.00,0.0,cwc,2013-06-13 05:15:00,
2013-06-12 23:20:00,70.9,40.7,29.70,SE,144,1.0,-999.0,16,-99.99,,,0.00,0.0,cwc,2013-06-13 05:20:00,
2013-06-12 23:25:00,71.0,40.8,29.70,SE,144,0.0,-999.0,16,-99.99,,,0.00,0.0,cwc,2013-06-13 05:25:00,
2013-06-12 23:30:00,70.8,40.9,29.70,SE,144,1.0,-999.0,17,-99.99,,,0.00,0.0,cwc,2013-06-13 05:30:00,
2013-06-12 23:35:00,70.5,40.6,29.70,SE,144,3.0,-999.0,17,-99.99,,,0.00,0.0,cwc,2013-06-13 05:35:00,
2013-06-12 23:40:00,70.8,40.9,29.70,SE,144,1.0,-999.0,17,-99.99,,,0.00,0.0,cwc,2013-06-13 05:40:00,
2013-06-12 23:45:00,71.1,41.2,29.70,SE,144,1.0,-999.0,17,-99.99,,,0.00,0.0,cwc,2013-06-13 05:45:00,
2013-06-12 23:50:00,70.8,41.3,29.70,SE,144,3.0,-999.0,18,-99.99,,,0.00,0.0,cwc,2013-06-13 05:50:00,
2013-06-12 23:55:00,70.8,41.3,29.70,SE,144,2.0,-999.0,18,-99.99,,,0.00,0.0,cwc,2013-06-13 05:55:00,